N7LK Weather Reports


time (UTC)temp
C
wind
direction
speed
KPH
gust
KPH
rain 1hr
cm
rain 24hr
cm
rain mn
cm
humidity
%
barometer
mb
20260503005342 32 64 1.6 11.3 0.00 0.00 0.00 14 1007.4
20260503004340 32 9 0.0 14.5 0.00 0.00 0.00 13 1007.4
20260503003339 33 48 0.0 8.0 0.00 0.00 0.00 13 1007.5
20260503002344 33 355 4.8 12.9 0.00 0.00 0.00 13 1007.5
20260503001342 33 93 0.0 9.7 0.00 0.00 0.00 13 1007.6
20260503000341 34 65 1.6 16.1 0.00 0.00 0.00 13 1007.6
20260502235402 34 161 1.6 8.0 0.00 0.00 0.00 13 1007.5
20260502234346 34 119 1.6 11.3 0.00 0.00 0.00 13 1007.6
20260502233334 35 63 0.0 0.0 0.00 0.00 0.00 13 1007.5
20260502232341 35 209 0.0 0.0 0.00 0.00 0.00 12 1007.6
20260502231348 34 267 0.0 0.0 0.00 0.00 0.00 13 1007.7
20260502230339 34 61 1.6 9.7 0.00 0.00 0.00 12 1007.8
20260502225406 34 59 0.0 9.7 0.00 0.00 0.00 13 1007.8
20260502224406 34 175 0.0 12.9 0.00 0.00 0.00 13 1008.1
20260502223332 33 141 0.0 12.9 0.00 0.00 0.00 14 1008.2
20260502222340 33 116 0.0 11.3 0.00 0.00 0.00 14 1008.3
20260502221331 33 182 9.7 25.7 0.00 0.00 0.00 14 1008.5
20260502220335 34 171 9.7 17.7 0.00 0.00 0.00 14 1008.6
20260502215335 33 178 11.3 17.7 0.00 0.00 0.00 14 1008.7
20260502214334 33 236 4.8 17.7 0.00 0.00 0.00 15 1008.9
20260502213336 33 23 1.6 12.9 0.00 0.00 0.00 16 1009.0
20260502212334 33 83 0.0 9.7 0.00 0.00 0.00 16 1009.2
20260502211336 32 175 6.4 12.9 0.00 0.00 0.00 17 1009.3
20260502210336 32 65 0.0 9.7 0.00 0.00 0.00 17 1009.5
20260502205335 32 189 1.6 11.3 0.00 0.00 0.00 17 1009.6
20260502204338 32 109 1.6 11.3 0.00 0.00 0.00 16 1009.8
20260502203357 32 168 1.6 12.9 0.00 0.00 0.00 17 1009.9
20260502202335 33 78 8.0 14.5 0.00 0.00 0.00 17 1010.1
20260502201337 33 65 3.2 12.9 0.00 0.00 0.00 16 1010.1
20260502200340 33 206 6.4 14.5 0.00 0.00 0.00 19 1010.3
20260502195337 32 142 1.6 12.9 0.00 0.00 0.00 19 1010.4
20260502194336 32 205 9.7 22.5 0.00 0.00 0.00 20 1010.5
20260502193336 32 115 6.4 16.1 0.00 0.00 0.00 20 1010.7
20260502192336 32 158 9.7 19.3 0.00 0.00 0.00 20 1010.8
20260502191338 32 190 8.0 19.3 0.00 0.00 0.00 21 1011.0
20260502190338 32 184 11.3 22.5 0.00 0.00 0.00 20 1011.1
20260502185337 31 104 6.4 19.3 0.00 0.00 0.00 21 1011.3
20260502184357 32 173 8.0 17.7 0.00 0.00 0.00 21 1011.4
20260502183334 32 44 8.0 19.3 0.00 0.00 0.00 21 1011.6
20260502182339 32 148 4.8 14.5 0.00 0.00 0.00 22 1011.8
20260502181339 31 56 4.8 16.1 0.00 0.00 0.00 23 1011.9
20260502180400 31 77 6.4 19.3 0.00 0.00 0.00 22 1012.1
20260502170341 30 134 11.3 19.3 0.00 0.00 0.00 25 1012.4
20260502164347 29 69 4.8 17.7 0.00 0.00 0.00 27 1012.5
20260502163407 28 88 4.8 17.7 0.00 0.00 0.00 26 1012.5
20260502162407 28 132 9.7 16.1 0.00 0.00 0.00 26 1012.4
20260502161345 28 79 3.2 12.9 0.00 0.00 0.00 27 1012.4
20260502160328 28 119 4.8 16.1 0.00 0.00 0.00 27 1012.4
20260502152344 27 78 4.8 14.5 0.00 0.00 0.00 29 1012.2
20260502151326 27 146 3.2 14.5 0.00 0.00 0.00 30 1012.1
20260502150346 26 86 6.4 12.9 0.00 0.00 0.00 30 1012.1
20260502130328 20 32 0.0 0.0 0.00 0.00 0.00 32 1010.6
20260502123334 20 127 0.0 0.0 0.00 0.00 0.00 31 1010.1
20260502122341 19 136 0.0 0.0 0.00 0.00 0.00 33 1010.1
20260502121328 19 282 0.0 0.0 0.00 0.00 0.00 34 1010.0
20260502120336 19 282 0.0 0.0 0.00 0.00 0.00 36 1010.0
20260502115338 20 282 0.0 0.0 0.00 0.00 0.00 36 1009.9
20260502114344 20 282 0.0 0.0 0.00 0.00 0.00 32 1009.8
20260502113343 20 282 0.0 0.0 0.00 0.00 0.00 33 1009.8
20260502112345 21 282 0.0 0.0 0.00 0.00 0.00 33 1009.8
20260502111344 21 282 0.0 0.0 0.00 0.00 0.00 31 1009.8
20260502110351 22 162 0.0 0.0 0.00 0.00 0.00 30 1009.7
20260502105330 22 138 0.0 0.0 0.00 0.00 0.00 27 1009.6
20260502104329 21 138 0.0 0.0 0.00 0.00 0.00 27 1009.6
20260502103329 21 132 0.0 0.0 0.00 0.00 0.00 27 1009.5
20260502102333 22 52 0.0 0.0 0.00 0.00 0.00 29 1009.3
20260502101335 22 54 0.0 0.0 0.00 0.00 0.00 28 1009.3
20260502100334 22 113 0.0 0.0 0.00 0.00 0.00 27 1009.2
20260502091338 22 69 0.0 0.0 0.00 0.00 0.00 27 1008.9
20260502090338 23 69 0.0 0.0 0.00 0.00 0.00 27 1008.9
20260502071334 23 70 0.0 0.0 0.00 0.00 0.00 28 1008.4
20260502070335 23 70 0.0 0.0 0.00 0.00 0.00 27 1008.3
20260502065335 23 69 0.0 0.0 0.00 0.00 0.00 28 1008.4
20260502064339 23 71 0.0 0.0 0.00 0.00 0.00 27 1008.3
20260502063401 23 71 0.0 0.0 0.00 0.00 0.00 27 1008.3
20260502062338 23 80 0.0 1.6 0.00 0.00 0.00 27 1008.3
20260502061337 23 88 0.0 0.0 0.00 0.00 0.00 26 1008.2
20260502060337 24 306 0.0 0.0 0.00 0.00 0.00 26 1008.1
20260502055343 24 306 0.0 0.0 0.00 0.00 0.00 24 1008.0
20260502054342 25 306 0.0 0.0 0.00 0.00 0.00 24 1008.0
20260502053341 25 306 0.0 0.0 0.00 0.00 0.00 23 1007.8
20260502052341 25 306 0.0 0.0 0.00 0.00 0.00 21 1007.8
20260502051341 25 306 0.0 0.0 0.00 0.00 0.00 20 1007.7
20260502050344 25 306 0.0 0.0 0.00 0.00 0.00 19 1007.7
20260502045345 25 306 0.0 0.0 0.00 0.00 0.00 20 1007.7
20260502044325 26 306 0.0 0.0 0.00 0.00 0.00 20 1007.7
20260502043327 26 306 0.0 0.0 0.00 0.00 0.00 21 1007.7
20260502042330 26 306 0.0 0.0 0.00 0.00 0.00 21 1007.6
20260502041351 27 306 0.0 0.0 0.00 0.00 0.00 20 1007.5
20260502040326 27 306 0.0 0.0 0.00 0.00 0.00 20 1007.4
20260502035327 27 306 0.0 0.0 0.00 0.00 0.00 21 1007.3
20260502034329 28 306 0.0 0.0 0.00 0.00 0.00 20 1007.2
20260502033327 28 169 0.0 0.0 0.00 0.00 0.00 19 1007.1
20260502032327 28 175 0.0 0.0 0.00 0.00 0.00 19 1006.8
20260502031327 28 184 0.0 0.0 0.00 0.00 0.00 18 1006.7
20260502030407 28 219 0.0 0.0 0.00 0.00 0.00 18 1006.7
20260502025329 29 228 0.0 3.2 0.00 0.00 0.00 18 1006.6
20260502024332 29 217 0.0 6.4 0.00 0.00 0.00 18 1006.5
20260502023331 29 227 0.0 1.6 0.00 0.00 0.00 18 1006.4
20260502022331 30 240 0.0 0.0 0.00 0.00 0.00 18 1006.1
20260502021330 30 203 1.6 6.4 0.00 0.00 0.00 18 1006.2
20260502020333 30 221 0.0 6.4 0.00 0.00 0.00 17 1006.1
20260502015334 31 196 0.0 9.7 0.00 0.00 0.00 17 1006.0
20260502014331 31 227 0.0 6.4 0.00 0.00 0.00 18 1006.0
20260502013330 31 260 3.2 11.3 0.00 0.00 0.00 18 1006.0
20260502012333 31 263 0.0 6.4 0.00 0.00 0.00 17 1006.1
20260502011334 31 275 3.2 8.0 0.00 0.00 0.00 17 1006.1
20260502010334 31 275 0.0 12.9 0.00 0.00 0.00 17 1006.1